USA 270

Last updated on Sat Sep 19 2026 00:03:00 GMT+0000 (Coordinated Universal Time)

1 41744U 16052A 26261.30663617 -.00000354 00000+0 00000+0 0 9994 2 41744 4.4298 75.9506 0008421 116.6505 41.3306 1.00268485 29068
UTC large
Height (km)
Speed (km/s)
/
Latitude / Longitude
Inclination (degrees)
Orbital Period (minutes)
Azimuth
Elevation
Range (km)
Doppler Factor

Next 0 passes for location: London (51.5072 / 0.1276)

No passes found over London.
USA 270